EW2027 Weather Reports


time (UTC)temp
F
wind
direction
speed
knots
gust
knots
rain 1hr
in
rain 24hr
in
rain mn
in
humidity
%
barometer
mb
20260906200704 101 126 3.5 6.1 0.00 0.00 0.00 39 1014.3
20260906193704 101 104 4.3 7.8 0.00 0.00 0.00 41 1014.8
20260906193204 101 187 0.9 7.0 0.00 0.00 0.00 41 1014.8
20260906190703 100 193 1.7 4.3 0.00 0.00 0.00 42 1015.0
20260906183704 99 272 1.7 2.6 0.00 0.00 0.00 43 1015.5
20260906180703 99 123 0.9 5.2 0.00 0.00 0.00 43 1016.1
20260906180204 98 108 3.5 7.8 0.00 0.00 0.00 44 1016.3
20260906173704 98 122 2.6 6.1 0.00 0.00 0.00 45 1016.7
20260906173204 98 143 1.7 5.2 0.00 0.00 0.00 47 1016.8
20260906170704 96 332 1.7 2.6 0.00 0.00 0.00 47 1017.1
20260906170203 97 324 1.7 2.6 0.00 0.00 0.00 47 1017.2
20260906163703 96 327 0.9 2.6 0.00 0.00 0.00 52 1017.4
20260906163203 95 327 0.9 5.2 0.00 0.00 0.00 50 1017.4
20260906160704 94 265 1.7 5.2 0.00 0.00 0.00 52 1017.5
20260906160203 94 330 2.6 5.2 0.00 0.00 0.00 52 1017.5
20260906153703 92 334 1.7 2.6 0.00 0.00 0.00 55 1017.5
20260906153204 92 301 1.7 2.6 0.00 0.00 0.00 55 1017.4
20260906150704 89 170 0.9 1.7 0.00 0.00 0.00 59 1017.2
20260906150203 89 170 0.9 2.6 0.00 0.00 0.00 57 1017.2
20260906143703 88 155 0.0 0.9 0.00 0.00 0.00 60 1017.2
20260906143203 88 155 0.0 2.6 0.00 0.00 0.00 61 1017.2
20260906140704 87 142 0.0 0.9 0.00 0.00 0.00 62 1017.1
20260906140204 86 142 0.9 2.6 0.00 0.00 0.00 62 1017.1
20260906133703 83 132 0.0 0.0 0.00 0.00 0.00 66 1016.8
20260906133204 82 132 0.0 0.0 0.00 0.00 0.00 68 1016.6
20260906130703 78 132 0.0 0.0 0.00 0.00 0.00 75 1016.5
20260906130204 77 132 0.0 2.6 0.00 0.00 0.00 77 1016.6
20260906123703 75 132 0.0 0.9 0.00 0.00 0.00 80 1016.2
20260906123203 75 132 0.0 0.0 0.00 0.00 0.00 80 1016.1
20260906120704 75 132 0.0 0.0 0.00 0.00 0.00 79 1015.8
20260906120203 75 132 0.0 0.9 0.00 0.00 0.00 79 1015.9
20260906113704 75 132 0.0 0.0 0.00 0.00 0.00 78 1015.7
20260906113204 75 132 0.0 0.9 0.00 0.00 0.00 78 1015.7
20260906110203 76 132 0.0 0.0 0.00 0.00 0.00 77 1015.4
20260906100703 77 132 0.0 0.9 0.00 0.00 0.00 77 1015.3
20260906100204 77 132 0.0 0.9 0.00 0.00 0.00 77 1015.3
20260906093704 77 132 0.0 0.9 0.00 0.00 0.00 76 1015.2
20260906093204 77 132 0.0 1.7 0.00 0.00 0.00 76 1015.2
20260906090704 78 132 0.0 0.9 0.00 0.00 0.00 75 1015.2
20260906083703 78 132 0.0 0.0 0.00 0.00 0.00 73 1014.9
20260906083203 78 132 0.0 0.0 0.00 0.00 0.00 73 1014.8
20260906080703 79 132 0.0 0.0 0.00 0.00 0.00 72 1014.8
20260906080203 79 132 0.0 0.0 0.00 0.00 0.00 72 1014.8
20260906073704 79 132 0.0 0.9 0.00 0.00 0.00 72 1014.7
20260906073204 80 132 0.0 2.6 0.00 0.00 0.00 71 1014.7
20260906070204 80 132 0.0 0.0 0.00 0.00 0.00 71 1014.7
20260906063703 80 132 0.0 0.0 0.00 0.00 0.00 70 1014.9
20260906063204 80 132 0.0 0.0 0.00 0.00 0.00 70 1014.9
20260906060704 81 132 0.0 0.0 0.00 0.00 0.00 69 1015.1
20260906060203 81 132 0.0 0.0 0.00 0.00 0.00 68 1015.0
20260906053703 82 132 0.0 0.0 0.00 0.00 0.00 67 1014.9
20260906053203 82 132 0.0 0.0 0.00 0.00 0.00 67 1015.0
20260906050705 84 132 0.0 0.0 0.00 0.00 0.00 64 1014.8
20260906050203 84 132 0.0 0.9 0.00 0.00 0.00 63 1014.9
20260906043704 86 132 0.0 0.0 0.00 0.00 0.00 60 1014.7
20260906043204 86 132 0.0 1.7 0.00 0.00 0.00 59 1014.6
20260906040703 87 132 0.9 1.7 0.00 0.00 0.00 58 1014.7
20260906040205 87 132 0.9 2.6 0.00 0.00 0.00 58 1014.7
20260906033704 87 132 1.7 2.6 0.00 0.00 0.00 57 1014.7
20260906033204 87 130 0.9 2.6 0.00 0.00 0.00 57 1014.7
20260906030703 88 103 0.9 1.7 0.00 0.00 0.00 57 1014.6
20260906023704 90 104 0.9 1.7 0.00 0.00 0.00 52 1014.3
20260906023204 90 103 0.9 1.7 0.00 0.00 0.00 52 1014.1
20260906020704 91 103 0.9 1.7 0.00 0.00 0.00 50 1013.8
20260906020204 91 103 0.9 2.6 0.00 0.00 0.00 50 1013.7
20260906010704 93 103 0.0 0.0 0.00 0.00 0.00 49 1013.4
20260906010203 94 103 0.0 0.9 0.00 0.00 0.00 48 1013.4
20260906003703 96 103 0.0 1.7 0.00 0.00 0.00 43 1013.2
20260906000704 98 120 1.7 2.6 0.00 0.00 0.00 41 1013.3
20260906000205 98 129 2.6 8.7 0.00 0.00 0.00 40 1013.2
20260905223703 100 155 2.6 5.2 0.00 0.00 0.00 39 1012.8
20260905220705 100 226 1.7 2.6 0.00 0.00 0.00 38 1012.9
20260905220204 100 122 2.6 13.0 0.00 0.00 0.00 39 1012.9
20260905213704 101 149 1.7 2.6 0.00 0.00 0.00 39 1013.2
20260905213204 100 144 4.3 10.4 0.00 0.00 0.00 40 1013.2
20260905210703 100 139 6.1 10.4 0.00 0.00 0.00 39 1013.6
20260905210204 100 136 3.5 8.7 0.00 0.00 0.00 39 1013.7
20260905203203 100 74 3.5 10.4 0.00 0.00 0.00 39 1014.0